Location: The Jewett Observatory
(46.7288°N, 117.1525°W)
Time: 03:25:16
(UTC-07:00)

Amateur Radio Satellites - All Passes

Search period start: 05 September 2015 02:55
Search period end: 06 September 2015 02:55
Location: The Jewett Observatory, 46.7288°N, 117.1525°W

Satellite Date Start Highest point End Downlink Frequencies (MHz)
Time Altitude Azimuth
MOZHAYETS 4 05 Sep 02:57:18 02:59:58 16° 61° (ENE) 03:02:47
Cosmos 2499 05 Sep 03:08:30 03:16:02 36° 85° (E) 03:23:57 435.465 / 435.565
STARS 05 Sep 03:14:11 03:18:36 76° 73° (ENE) 03:23:04 437.465
ITUPSAT 1 05 Sep 03:25:27 03:27:24 12° 274° (W) 03:29:07 437.325
PCSat 05 Sep 03:26:24 03:30:24 20° 326° (NW) 03:34:19 145.827
GONETS M04 05 Sep 03:39:03 03:47:34 55° 287° (WNW) 03:56:07
VERMONT LUNAR 05 Sep 03:40:38 03:43:08 24° 177° (S) 03:45:38 437.305
ITAMSAT 1 05 Sep 03:41:30 03:46:44 86° 282° (WNW) 03:51:56 435.822/435.867
KKS-1 05 Sep 03:45:37 03:49:40 33° 264° (W) 03:53:43 437.445
Gurwin Techsat 1B 05 Sep 03:51:38 03:56:53 59° 289° (WNW) 04:02:06 435.225
AO-7 05 Sep 03:52:53 03:59:53 30° 93° (E) 04:07:02 29.400- 29.500
O/OREOS (USA 219) 05 Sep 04:04:17 04:08:55 80° 246° (WSW) 04:13:30 437.305
Oscar 19 05 Sep 04:12:56 04:16:04 16° 302° (WNW) 04:19:01 437.125/150
JAS-2 05 Sep 04:13:24 04:20:23 82° 287° (WNW) 04:26:29 435.910
PHONESAT 2.4 05 Sep 04:19:49 04:22:01 16° 160° (SSE) 04:24:15 2401.200-2431.200
MOZHAYETS 4 05 Sep 04:32:06 04:36:42 71° 258° (WSW) 04:41:18
HORYU 2 05 Sep 04:45:32 04:49:57 58° 101° (E) 04:54:19 437.375
STARS 05 Sep 04:53:45 04:55:40 12° 273° (W) 04:57:23 437.465
Cosmos 2499 05 Sep 05:00:19 05:08:51 60° 286° (WNW) 05:17:39 435.465 / 435.565
CUBESAT XI-V 05 Sep 05:03:14 05:06:58 26° 66° (ENE) 05:10:49 437.345
STRAND 1 05 Sep 05:14:35 05:16:41 13° 56° (NE) 05:19:01 437.568
VERMONT LUNAR 05 Sep 05:16:50 05:19:02 19° 193° (SSW) 05:21:13 437.305
ITAMSAT 1 05 Sep 05:22:42 05:25:33 15° 303° (WNW) 05:28:12 435.822/435.867
Gurwin Techsat 1B 05 Sep 05:34:54 05:35:54 10° 307° (NW) 05:36:38 435.225
GONETS M04 05 Sep 05:43:03 05:47:05 13° 314° (NW) 05:50:39
AO-7 05 Sep 05:45:09 05:53:24 69° 294° (WNW) 06:01:34 29.400- 29.500
PHONESAT 2.4 05 Sep 05:56:21 05:59:19 28° 176° (S) 06:02:18 2401.200-2431.200
Cubesat XI-IV 05 Sep 05:58:56 06:02:10 17° 88° (E) 06:05:37 437.490
JAS-2 05 Sep 05:59:45 06:04:22 19° 308° (NW) 06:08:28 435.910
SO-50 05 Sep 06:04:58 06:07:20 13° 19° (NNE) 06:09:48 436.795
HORYU 2 05 Sep 06:23:09 06:26:12 18° 298° (WNW) 06:29:06 437.375
PRISM 05 Sep 06:33:56 06:37:39 35° 69° (ENE) 06:41:25 437.425
CUBESAT XI-V 05 Sep 06:39:57 06:44:16 39° 263° (W) 06:48:35 437.345
CUTE-I 05 Sep 06:41:15 06:46:10 38° 96° (E) 06:51:08 437.470
STRAND 1 05 Sep 06:50:04 06:55:08 78° 74° (ENE) 07:00:16 437.568
Cosmos 2499 05 Sep 06:59:25 07:04:27 15° 311° (NW) 07:09:02 435.465 / 435.565
YUBILEINY 05 Sep 07:00:41 07:08:56 42° 68° (ENE) 07:17:13 435.215
PCSat 05 Sep 07:01:03 07:02:15 11° 18° (NNE) 07:03:34 145.827
AIST 1 05 Sep 07:15:59 07:19:49 34° 92° (E) 07:23:43
ISS 05 Sep 07:16:11 07:18:58 27° 141° (SE) 07:21:47 145.825
BRITE-PL 05 Sep 07:17:49 07:21:56 21° 88° (E) 07:26:15 437.365/2234.400
GOMX 1 05 Sep 07:22:32 07:25:09 14° 84° (E) 07:28:03 467.674
PHONESAT 2.4 05 Sep 07:33:57 07:36:42 22° 193° (SSW) 07:39:26 2401.200-2431.200
HO-68 05 Sep 07:36:35 07:37:51 11° 80° (E) 07:39:42 435.675
Cubesat XI-IV 05 Sep 07:37:36 07:42:57 74° 287° (WNW) 07:48:16 437.490
AO-7 05 Sep 07:39:16 07:44:53 20° 315° (NW) 07:50:13 29.400- 29.500
SO-50 05 Sep 07:44:37 07:49:17 39° 42° (NE) 07:53:52 436.795
Cosmos 2491 05 Sep 07:54:23 08:02:03 38° 86° (E) 08:09:53 435.465 / 435.565
PRISM 05 Sep 08:09:57 08:13:12 22° 267° (W) 08:16:23 437.425
DANDE 05 Sep 08:15:58 08:17:43 11° 47° (NE) 08:20:02 436.750
CUTE-I 05 Sep 08:21:27 08:26:13 34° 295° (WNW) 08:30:56 437.470
STRAND 1 05 Sep 08:32:06 08:35:03 15° 273° (W) 08:37:46 437.568
PCSat 05 Sep 08:42:46 08:47:33 30° 42° (NE) 08:52:21 145.827
DOVE 4 05 Sep 08:47:40 08:52:48 46° 97° (E) 08:57:50 437.250
CUSAT 1 05 Sep 08:51:12 08:57:22 25° 59° (ENE) 09:03:58 437.405
ISS 05 Sep 08:51:59 08:55:13 61° 340° (NNW) 08:58:27 145.825
UNISAT 6 05 Sep 08:52:56 08:54:59 13° 59° (ENE) 08:57:12 437.425
AIST 1 05 Sep 08:54:08 08:57:35 23° 291° (WNW) 09:00:59
BRITE-PL 05 Sep 08:55:21 09:00:54 66° 287° (WNW) 09:06:33 437.365/2234.400
CINEMA 3 05 Sep 08:56:48 09:00:53 26° 91° (E) 09:04:56 145.822/145.860
YUBILEINY 05 Sep 08:57:34 09:06:01 50° 271° (W) 09:14:18 435.215
GOMX 1 05 Sep 08:58:35 09:04:06 88° 103° (ESE) 09:09:36 467.674
CUTE 1.7 + AOD 2 05 Sep 09:08:28 09:12:32 45° 98° (E) 09:16:35 437.475
Cosmos 2504 05 Sep 09:08:54 09:16:37 38° 67° (ENE) 09:23:59 435.465 / 435.565
TIGRISAT 05 Sep 09:17:47 09:21:11 21° 63° (ENE) 09:24:42 435.000
Cubesat XI-IV 05 Sep 09:19:45 09:22:15 13° 305° (NW) 09:24:31 437.490
HO-68 05 Sep 09:20:12 09:27:20 61° 102° (ESE) 09:34:26 435.675
CANX-2 05 Sep 09:23:12 09:27:27 74° 102° (ESE) 09:31:39 2200.000
SO-50 05 Sep 09:25:15 09:29:51 38° 242° (WSW) 09:34:17 436.795
ZACube-1 05 Sep 09:28:55 09:30:59 13° 86° (E) 09:33:14 437.345
FUNcube-1 05 Sep 09:31:49 09:34:00 14° 86° (E) 09:36:22 145.935
QB50P1 05 Sep 09:35:18 09:36:29 11° 59° (ENE) 09:37:52 145.935-145.965
SEEDS 05 Sep 09:35:28 09:39:40 72° 102° (ESE) 09:43:49 437.485
ANTELSAT 05 Sep 09:36:16 09:40:21 30° 67° (ENE) 09:44:30 437.575/2403.000
DELFI C3 05 Sep 09:43:07 09:45:38 17° 90° (E) 09:48:17 145.870
AUBIESAT-1 05 Sep 09:43:36 09:47:50 35° 63° (ENE) 09:51:56 437.475
UWE-3 05 Sep 09:46:07 09:49:56 26° 92° (E) 09:53:42 435.000/436.395/437.385
COMPASS 1 05 Sep 09:48:47 09:52:58 78° 101° (E) 09:57:06 437.405
CUBEBUG 2 05 Sep 09:49:41 09:53:59 36° 96° (E) 09:58:10 437.445
Cosmos 2491 05 Sep 09:50:11 09:58:41 55° 287° (WNW) 10:07:12 435.465 / 435.565
M-CUBED/EXP-1 PRIME 05 Sep 09:53:36 09:58:12 50° 66° (ENE) 10:02:39 437.505
AAUSAT CUBESAT 2 05 Sep 09:54:25 09:58:35 77° 103° (ESE) 10:02:42 437.432
DANDE 05 Sep 09:55:39 10:02:59 44° 69° (ENE) 10:11:05 436.750
Oscar 11 05 Sep 10:08:59 10:13:11 48° 99° (E) 10:17:22 145.826/435.025
BUGSAT 1 05 Sep 10:18:35 10:21:18 18° 63° (ENE) 10:24:09 437.445
DOVE 4 05 Sep 10:25:47 10:30:19 28° 295° (WNW) 10:34:43 437.250
PCSat 05 Sep 10:25:59 10:31:17 55° 243° (WSW) 10:36:34 145.827
UNISAT 6 05 Sep 10:26:23 10:31:06 87° 75° (ENE) 10:35:50 437.425
ISS 05 Sep 10:29:00 10:32:00 32° 359° (N) 10:35:00 145.825
DUCHIFAT 1 05 Sep 10:32:27 10:36:21 36° 69° (ENE) 10:40:18 145.980
CUSAT 1 05 Sep 10:32:56 10:40:57 90° 77° (ENE) 10:49:10 437.405
CINEMA 3 05 Sep 10:33:32 10:38:16 43° 290° (WNW) 10:42:50 145.822/145.860
POLYITAN 1 05 Sep 10:36:06 10:40:08 42° 70° (ENE) 10:44:15 437.675
BRITE-PL 05 Sep 10:36:07 10:38:32 13° 304° (NW) 10:40:44 437.365/2234.400
POPSAT HIP 1 05 Sep 10:36:37 10:40:37 42° 70° (ENE) 10:44:42 437.405
GOMX 1 05 Sep 10:38:02 10:41:34 17° 301° (WNW) 10:44:55 467.674
CUTE 1.7 + AOD 2 05 Sep 10:45:04 10:48:10 20° 296° (WNW) 10:51:09 437.475
NANOSAT C BR1 05 Sep 10:51:35 10:55:46 59° 73° (ENE) 11:00:01 145.865
TIGRISAT 05 Sep 10:52:57 10:57:35 54° 260° (W) 11:02:13 435.000
AISAT 05 Sep 10:53:49 10:56:25 15° 89° (E) 10:59:11 437.250
QB50P2 05 Sep 10:54:43 10:58:57 67° 74° (ENE) 11:03:14 145.880/145.840
ESTCUBE 1 05 Sep 11:00:04 11:02:11 13° 87° (E) 11:04:31 437.505/2401.250
CANX-2 05 Sep 11:00:45 11:02:51 13° 299° (WNW) 11:04:47 2200.000
Cosmos 2504 05 Sep 11:01:03 11:09:14 55° 270° (W) 11:16:51 435.465 / 435.565
ZACube-1 05 Sep 11:03:27 11:07:56 70° 286° (WNW) 11:12:16 437.345
HUMSAT D 05 Sep 11:05:35 11:09:43 50° 99° (E) 11:13:47 437.325/437.525
FUNcube-1 05 Sep 11:06:26 11:10:53 67° 286° (WNW) 11:15:12 145.935
QB50P1 05 Sep 11:07:25 11:11:41 87° 79° (E) 11:16:00 145.935-145.965
HO-68 05 Sep 11:08:28 11:14:44 33° 301° (WNW) 11:20:52 435.675
ANTELSAT 05 Sep 11:12:44 11:17:03 34° 264° (W) 11:21:22 437.575/2403.000
SEEDS 05 Sep 11:12:51 11:14:57 13° 299° (WNW) 11:16:54 437.485
DELFI C3 05 Sep 11:17:09 11:20:59 45° 288° (WNW) 11:24:47 145.870
AUBIESAT-1 05 Sep 11:18:17 11:22:30 31° 259° (W) 11:26:33 437.475
50 SAT 05 Sep 11:19:02 11:22:24 28° 95° (E) 11:25:46 437.505
VELOX 1 05 Sep 11:19:38 11:23:24 26° 94° (E) 11:27:12 145.980
UWE-3 05 Sep 11:22:21 11:26:33 36° 291° (WNW) 11:30:36 435.000/436.395/437.385
COMPASS 1 05 Sep 11:26:19 11:28:05 12° 299° (WNW) 11:29:41 437.405
CUBEBUG 2 05 Sep 11:26:33 11:30:33 28° 294° (WNW) 11:34:22 437.445
M-CUBED/EXP-1 PRIME 05 Sep 11:29:22 11:33:10 23° 262° (W) 11:36:46 437.505
AAUSAT CUBESAT 2 05 Sep 11:31:48 11:33:38 12° 299° (WNW) 11:35:17 437.432
DANDE 05 Sep 11:38:44 11:46:19 52° 267° (W) 11:54:27 436.750
DX 1 05 Sep 11:45:40 11:50:04 72° 103° (ESE) 11:54:27 434.975-435.025
Oscar 11 05 Sep 11:45:56 11:49:04 19° 296° (WNW) 11:52:04 145.826/435.025
GONETS M04 05 Sep 11:49:21 11:55:48 23° 57° (ENE) 12:02:33
UKube-1 05 Sep 11:49:58 11:54:20 72° 103° (ESE) 11:58:40 .
SPROUT 05 Sep 11:50:22 11:51:42 11° 86° (E) 11:53:17 437.525
BUGSAT 1 05 Sep 11:52:25 11:56:25 50° 261° (W) 12:00:30 437.445
Cosmos 2491 05 Sep 11:54:16 11:58:14 13° 314° (NW) 12:01:42 435.465 / 435.565
ISS 05 Sep 12:05:37 12:08:49 52° 18° (NNE) 12:12:01 145.825
UNISAT 6 05 Sep 12:06:48 12:08:37 12° 275° (W) 12:10:09 437.425
DUCHIFAT 1 05 Sep 12:08:47 12:12:16 23° 267° (W) 12:15:40 145.980
POLYITAN 1 05 Sep 12:12:58 12:16:15 21° 269° (W) 12:19:28 437.675
CUBEBUG 1 05 Sep 12:13:10 12:17:33 59° 101° (E) 12:21:57 437.445
POPSAT HIP 1 05 Sep 12:13:25 12:16:42 21° 268° (W) 12:19:55 437.405
Oscar 19 05 Sep 12:13:49 12:17:59 26° 63° (ENE) 12:22:15 437.125/150
CUSAT 1 05 Sep 12:16:43 12:22:46 23° 277° (W) 12:28:36 437.405
AISAT 05 Sep 12:29:00 12:33:27 62° 288° (WNW) 12:37:52 437.250
NANOSAT C BR1 05 Sep 12:29:31 12:32:02 15° 271° (W) 12:34:24 145.865
TISAT 1 05 Sep 12:32:17 12:35:09 18° 90° (E) 12:38:09 437.305
QB50P2 05 Sep 12:33:12 12:35:21 13° 273° (W) 12:37:20 145.880/145.840
ESTCUBE 1 05 Sep 12:35:07 12:39:38 71° 286° (WNW) 12:44:07 437.505/2401.250
HUMSAT D 05 Sep 12:42:10 12:45:06 18° 297° (WNW) 12:47:53 437.325/437.525
JAS-2 05 Sep 12:45:06 12:49:42 18° 51° (NE) 12:54:31 435.910
50 SAT 05 Sep 12:53:38 12:56:50 24° 293° (WNW) 12:59:57 437.505
VELOX 1 05 Sep 12:55:55 13:00:02 36° 292° (WNW) 13:04:05 145.980
Cosmos 2499 05 Sep 12:56:52 13:01:45 16° 50° (NE) 13:06:50 435.465 / 435.565
Cosmos 2504 05 Sep 12:58:00 12:59:34 10° 290° (WNW) 13:00:30 435.465 / 435.565
BEESAT 2 05 Sep 12:58:14 12:58:46 10° 110° (ESE) 12:59:31 435.950
AO-7 05 Sep 13:07:09 13:11:31 16° 40° (NE) 13:16:11 29.400- 29.500
DX 1 05 Sep 13:23:19 13:25:48 15° 300° (WNW) 13:28:10 434.975-435.025
ITAMSAT 1 05 Sep 13:24:02 13:28:23 29° 64° (ENE) 13:32:50 435.822/435.867
SPROUT 05 Sep 13:24:03 13:28:26 78° 284° (WNW) 13:32:45 437.525
DANDE 05 Sep 13:25:51 13:28:13 11° 283° (WNW) 13:29:59 436.750
UKube-1 05 Sep 13:27:31 13:29:57 14° 300° (WNW) 13:32:15 .
Gurwin Techsat 1B 05 Sep 13:36:07 13:41:06 43° 68° (ENE) 13:46:08 435.225
ISS 05 Sep 13:42:10 13:45:08 33° 217° (SW) 13:48:06 145.825
ITUPSAT 1 05 Sep 13:42:41 13:45:51 18° 90° (E) 13:49:09 437.325
GONETS M04 05 Sep 13:45:18 13:54:10 88° 79° (E) 14:03:02
CUBEBUG 1 05 Sep 13:50:32 13:53:31 18° 298° (WNW) 13:56:22 437.445
Oscar 19 05 Sep 13:52:02 13:57:04 50° 261° (W) 14:02:09 437.125/150
TISAT 1 05 Sep 14:07:05 14:11:14 48° 289° (WNW) 14:15:20 437.305
AIST 2 05 Sep 14:09:40 14:11:21 12° 110° (ESE) 14:13:14 435.215
BEESAT 05 Sep 14:11:39 14:15:58 33° 96° (E) 14:20:17 436.000
BEESAT 3 05 Sep 14:12:00 14:16:03 74° 125° (SE) 14:20:09 437.485
HORYU 2 05 Sep 14:13:49 14:14:46 11° 57° (ENE) 14:15:56 437.375
JAS-2 05 Sep 14:25:48 14:33:30 65° 70° (ENE) 14:41:10 435.910
BEESAT 2 05 Sep 14:32:05 14:36:11 88° 127° (SE) 14:40:20 435.950
RS-15 05 Sep 14:33:46 14:42:55 34° 107° (ESE) 14:52:40 29.354- 29.394
SWISSCUBE 05 Sep 14:38:10 14:42:55 65° 102° (ESE) 14:47:39 437.505
Cosmos 2499 05 Sep 14:48:30 14:57:07 66° 76° (ENE) 15:05:06 435.465 / 435.565
AO-7 05 Sep 14:54:38 15:02:38 54° 62° (ENE) 15:10:41 29.400- 29.500
ITAMSAT 1 05 Sep 15:02:50 15:07:45 43° 262° (W) 15:12:40 435.822/435.867
SPROUT 05 Sep 15:03:08 15:03:47 10° 302° (WNW) 15:04:15 437.525
STARS 05 Sep 15:03:14 15:04:37 11° 86° (E) 15:06:14 437.465
Gurwin Techsat 1B 05 Sep 15:16:40 15:21:16 29° 267° (W) 15:25:48 435.225
ITUPSAT 1 05 Sep 15:19:29 15:24:11 59° 289° (WNW) 15:28:51 437.325
KKS-1 05 Sep 15:33:21 15:37:33 38° 97° (E) 15:41:45 437.445
GONETS M04 05 Sep 15:43:37 15:50:00 22° 281° (WNW) 15:56:02
AIST 2 05 Sep 15:45:06 15:49:21 83° 307° (NW) 15:53:38 435.215
HORYU 2 05 Sep 15:46:12 15:50:42 77° 74° (ENE) 15:55:12 437.375
BEESAT 05 Sep 15:49:32 15:53:46 31° 294° (WNW) 15:57:55 436.000
BEESAT 3 05 Sep 15:51:27 15:54:27 19° 325° (NW) 15:57:23 437.485
BEESAT 2 05 Sep 16:12:00 16:14:49 17° 327° (NNW) 16:17:34 435.950
JAS-2 05 Sep 16:12:06 16:19:00 32° 270° (W) 16:25:44 435.910
SWISSCUBE 05 Sep 16:17:04 16:20:19 18° 299° (WNW) 16:23:26 437.505
MOZHAYETS 4 05 Sep 16:24:55 16:28:27 22° 91° (E) 16:32:03
CUTE-I 05 Sep 16:29:20 16:31:53 14° 56° (NE) 16:34:39 437.470
STARS 05 Sep 16:37:15 16:41:44 81° 285° (WNW) 16:46:10 437.465
Cosmos 2499 05 Sep 16:42:29 16:49:40 30° 278° (W) 16:56:16 435.465 / 435.565
RS-15 05 Sep 16:43:22 16:54:24 78° 311° (NW) 17:05:58 29.354- 29.394
AO-7 05 Sep 16:47:58 16:55:44 40° 263° (W) 17:03:25 29.400- 29.500
KKS-1 05 Sep 17:10:17 17:14:02 26° 295° (WNW) 17:17:41 437.445
AIST 1 05 Sep 17:21:03 17:23:05 13° 63° (ENE) 17:25:18
Cubesat XI-IV 05 Sep 17:23:15 17:28:04 36° 66° (ENE) 17:32:56 437.490
AIST 2 05 Sep 17:25:45 17:28:35 17° 328° (NNW) 17:31:21 435.215
HORYU 2 05 Sep 17:25:55 17:27:57 12° 273° (W) 17:29:46 437.375
Cosmos 2491 05 Sep 18:00:33 18:06:58 23° 57° (ENE) 18:13:40 435.465 / 435.565
MOZHAYETS 4 05 Sep 18:01:34 18:05:54 43° 290° (WNW) 18:10:11
CUTE-I 05 Sep 18:05:55 18:11:13 80° 75° (ENE) 18:16:34 437.470
HO-68 05 Sep 18:08:18 18:11:56 15° 47° (NE) 18:15:52 435.675
STARS 05 Sep 18:16:07 18:17:29 11° 302° (WNW) 18:18:38 437.465
O/OREOS (USA 219) 05 Sep 18:19:04 18:23:36 70° 112° (ESE) 18:28:11 437.305
BRITE-PL 05 Sep 18:31:51 18:35:39 26° 64° (ENE) 18:39:48 437.365/2234.400
CUBESAT XI-V 05 Sep 18:33:17 18:37:42 41° 97° (E) 18:42:08 437.345
GOMX 1 05 Sep 18:33:26 18:36:38 18° 60° (ENE) 18:40:07 467.674
AIST 1 05 Sep 18:56:59 19:01:19 70° 263° (W) 19:05:39
STRAND 1 05 Sep 18:58:26 19:02:11 21° 91° (E) 19:06:06 437.568
RS-15 05 Sep 18:58:49 19:08:58 36° 341° (NNW) 19:19:30 29.354- 29.394
Cubesat XI-IV 05 Sep 19:03:22 19:08:12 35° 264° (W) 19:13:02 437.490
PRISM 05 Sep 19:48:08 19:51:59 38° 98° (E) 19:55:53 437.425
CUTE-I 05 Sep 19:48:55 19:52:03 15° 273° (W) 19:54:57 437.470
HO-68 05 Sep 19:51:22 19:58:23 60° 67° (ENE) 20:05:28 435.675
DOVE 4 05 Sep 19:55:40 20:00:23 59° 73° (ENE) 20:05:26 437.250
Cosmos 2491 05 Sep 19:56:30 20:05:19 88° 79° (ENE) 20:14:09 435.465 / 435.565
O/OREOS (USA 219) 05 Sep 20:00:23 20:03:35 18° 313° (NW) 20:06:42 437.305
CINEMA 3 05 Sep 20:00:50 20:05:06 32° 67° (ENE) 20:09:34 145.822/145.860
CUTE 1.7 + AOD 2 05 Sep 20:03:47 20:07:53 47° 72° (ENE) 20:12:01 437.475
YUBILEINY 05 Sep 20:05:22 20:13:23 43° 87° (E) 20:21:33 435.215
GOMX 1 05 Sep 20:09:30 20:14:12 68° 259° (W) 20:19:18 467.674
BRITE-PL 05 Sep 20:09:39 20:13:59 41° 264° (W) 20:18:40 437.365/2234.400
CUBESAT XI-V 05 Sep 20:11:08 20:14:57 25° 295° (WNW) 20:18:43 437.345
CANX-2 05 Sep 20:18:31 20:22:47 75° 76° (ENE) 20:27:04 2200.000
ZACube-1 05 Sep 20:27:17 20:30:13 17° 62° (ENE) 20:33:18 437.345
SEEDS 05 Sep 20:29:51 20:34:04 71° 75° (ENE) 20:38:18 437.485
FUNcube-1 05 Sep 20:29:58 20:32:58 18° 62° (ENE) 20:36:05 145.935
DELFI C3 05 Sep 20:33:14 20:35:44 16° 64° (ENE) 20:38:20 145.870
STRAND 1 05 Sep 20:36:47 20:41:49 56° 289° (WNW) 20:46:48 437.568
COMPASS 1 05 Sep 20:42:18 20:46:30 76° 75° (ENE) 20:50:42 437.405
UWE-3 05 Sep 20:45:34 20:49:40 32° 68° (ENE) 20:53:51 435.000/436.395/437.385
AAUSAT CUBESAT 2 05 Sep 20:47:28 20:51:38 74° 75° (ENE) 20:55:49 437.432
CUBEBUG 2 05 Sep 20:50:06 20:54:33 44° 70° (ENE) 20:59:07 437.445
BEESAT 3 05 Sep 20:50:38 20:53:33 19° 35° (NE) 20:56:29 437.485
Oscar 11 05 Sep 21:06:15 21:10:29 54° 72° (ENE) 21:14:45 145.826/435.025
DX 1 05 Sep 21:11:04 21:12:32 12° 58° (ENE) 21:14:10 434.975-435.025
BEESAT 2 05 Sep 21:11:06 21:14:15 21° 37° (NE) 21:17:26 435.950
UKube-1 05 Sep 21:14:46 21:16:05 11° 58° (ENE) 21:17:36 .
RS-15 05 Sep 21:15:18 21:25:27 34° 14° (NNE) 21:36:06 29.354- 29.394
PRISM 05 Sep 21:24:01 21:27:14 22° 295° (WNW) 21:30:23 437.425
DOVE 4 05 Sep 21:35:09 21:38:39 19° 273° (W) 21:42:08 437.250
CINEMA 3 05 Sep 21:37:48 21:42:14 35° 265° (W) 21:46:48 145.822/145.860
HO-68 05 Sep 21:40:21 21:46:36 30° 267° (W) 21:52:44 435.675
CUTE 1.7 + AOD 2 05 Sep 21:41:02 21:44:05 18° 270° (W) 21:47:01 437.475
Cosmos 2504 05 Sep 21:43:19 21:49:42 26° 80° (E) 21:56:31 435.465 / 435.565
AISAT 05 Sep 21:54:11 21:57:25 21° 63° (ENE) 22:00:46 437.250
Cosmos 2491 05 Sep 21:54:52 22:01:10 22° 281° (WNW) 22:07:06 435.465 / 435.565
CANX-2 05 Sep 21:57:39 21:59:18 12° 274° (W) 22:00:44 2200.000
HUMSAT D 05 Sep 21:59:34 22:03:46 52° 72° (ENE) 22:08:00 437.325/437.525
ZACube-1 05 Sep 22:01:35 22:06:08 64° 259° (W) 22:10:44 437.345
YUBILEINY 05 Sep 22:01:41 22:10:10 49° 289° (WNW) 22:18:40 435.215
ESTCUBE 1 05 Sep 22:02:18 22:05:20 19° 63° (ENE) 22:08:31 437.505/2401.250
FUNcube-1 05 Sep 22:04:18 22:08:51 62° 260° (W) 22:13:25 145.935
CUSAT 1 05 Sep 22:05:04 22:06:07 11° 75° (ENE) 22:07:34 437.405
50 SAT 05 Sep 22:05:07 22:08:22 25° 67° (ENE) 22:11:40 437.505
DELFI C3 05 Sep 22:06:29 22:10:26 52° 260° (W) 22:14:23 145.870
SEEDS 05 Sep 22:08:39 22:10:25 12° 273° (W) 22:12:00 437.485
UNISAT 6 05 Sep 22:17:02 22:19:35 15° 87° (E) 22:22:17 437.425
VELOX 1 05 Sep 22:19:50 22:23:47 33° 68° (ENE) 22:27:48 145.980
COMPASS 1 05 Sep 22:21:26 22:22:46 11° 274° (W) 22:23:52 437.405
UWE-3 05 Sep 22:21:56 22:26:09 32° 266° (W) 22:30:22 435.000/436.395/437.385
AIST 2 05 Sep 22:26:12 22:29:40 25° 39° (NE) 22:33:08 435.215
AAUSAT CUBESAT 2 05 Sep 22:26:19 22:27:49 11° 274° (W) 22:29:05 437.432
CUBEBUG 2 05 Sep 22:27:34 22:31:27 24° 269° (W) 22:35:16 437.445
BEESAT 3 05 Sep 22:27:53 22:31:56 73° 236° (SW) 22:35:54 437.485
TIGRISAT 05 Sep 22:42:21 22:46:08 26° 93° (E) 22:49:52 435.000
DX 1 05 Sep 22:43:47 22:48:07 89° 87° (E) 22:52:31 434.975-435.025
Oscar 11 05 Sep 22:44:11 22:47:02 17° 271° (W) 22:49:46 145.826/435.025
SPROUT 05 Sep 22:47:08 22:49:21 14° 61° (ENE) 22:51:44 437.525
UKube-1 05 Sep 22:47:15 22:51:34 87° 75° (ENE) 22:55:56 .
BEESAT 2 05 Sep 22:48:37 22:52:39 60° 238° (WSW) 22:56:36 435.950
QB50P1 05 Sep 22:51:38 22:53:12 12° 87° (E) 22:54:59 145.935-145.965
AUBIESAT-1 05 Sep 22:57:38 22:59:08 12° 92° (E) 23:00:46 437.475
ANTELSAT 05 Sep 23:01:36 23:05:54 41° 97° (E) 23:10:05 437.575/2403.000
M-CUBED/EXP-1 PRIME 05 Sep 23:07:44 23:10:30 19° 96° (E) 23:13:12 437.505
DANDE 05 Sep 23:11:44 23:15:12 25° 85° (E) 23:19:39 436.750
CUBEBUG 1 05 Sep 23:11:51 23:16:09 69° 74° (ENE) 23:20:30 437.445
TISAT 1 05 Sep 23:27:11 23:30:16 20° 64° (ENE) 23:33:27 437.305
RS-15 05 Sep 23:28:57 23:40:38 66° 44° (NE) 23:52:48 29.354- 29.394
AISAT 05 Sep 23:29:25 23:33:42 48° 261° (W) 23:38:01 437.250
PCSat 05 Sep 23:30:54 23:32:42 12° 104° (ESE) 23:34:50 145.827
BUGSAT 1 05 Sep 23:32:14 23:35:19 20° 91° (E) 23:38:29 437.445
Cosmos 2504 05 Sep 23:32:44 23:41:06 78° 281° (W) 23:49:48 435.465 / 435.565
HUMSAT D 05 Sep 23:36:54 23:39:50 17° 270° (W) 23:42:38 437.325/437.525
ESTCUBE 1 05 Sep 23:37:27 23:41:51 55° 260° (W) 23:46:17 437.505/2401.250
50 SAT 05 Sep 23:39:17 23:42:47 29° 264° (W) 23:46:16 437.505
SO-50 05 Sep 23:41:46 23:46:11 38° 118° (ESE) 23:50:45 436.795
CUSAT 1 05 Sep 23:42:30 23:47:07 80° 100° (E) 23:53:24 437.405
DUCHIFAT 1 05 Sep 23:49:31 23:53:39 44° 99° (E) 23:57:44 145.980
UNISAT 6 05 Sep 23:52:23 23:56:54 62° 287° (WNW) 00:01:16 437.425
POLYITAN 1 05 Sep 23:54:05 23:58:20 53° 99° (E) 00:02:32 437.675
POPSAT HIP 1 05 Sep 23:54:20 23:58:34 52° 100° (E) 00:02:45 437.405
VELOX 1 05 Sep 23:56:34 00:00:23 27° 266° (W) 00:04:10 145.980
AIST 2 06 Sep 00:04:25 00:08:30 51° 239° (WSW) 00:12:28 435.215
YUBILEINY 06 Sep 00:06:47 00:09:57 12° 316° (NW) 00:12:36 435.215
NANOSAT C BR1 06 Sep 00:09:07 00:13:26 75° 103° (ESE) 00:17:42 145.865
SWISSCUBE 06 Sep 00:12:20 00:14:54 15° 59° (ENE) 00:17:38 437.505
QB50P2 06 Sep 00:12:48 00:17:09 85° 106° (ESE) 00:21:25 145.880/145.840
TIGRISAT 06 Sep 00:18:47 00:22:59 36° 292° (WNW) 00:27:01 435.000
SPROUT 06 Sep 00:20:37 00:24:55 72° 258° (WSW) 00:29:16 437.525
QB50P1 06 Sep 00:25:20 00:29:39 74° 286° (WNW) 00:33:55 145.935-145.965
AUBIESAT-1 06 Sep 00:30:37 00:34:23 54° 293° (WNW) 00:37:51 437.475
ANTELSAT 06 Sep 00:38:47 00:42:28 24° 295° (WNW) 00:45:58 437.575/2403.000
M-CUBED/EXP-1 PRIME 06 Sep 00:41:55 00:45:31 35° 297° (WNW) 00:48:48 437.505
CUBEBUG 1 06 Sep 00:50:56 00:53:04 13° 273° (W) 00:55:00 437.445
ITUPSAT 1 06 Sep 00:52:01 00:56:04 29° 65° (ENE) 01:00:12 437.325
DANDE 06 Sep 00:53:59 00:58:00 37° 294° (WNW) 01:03:19 436.750
GONETS M04 06 Sep 00:56:28 01:02:16 21° 78° (ENE) 01:08:28
TISAT 1 06 Sep 01:01:41 01:05:45 44° 261° (W) 01:09:50 437.305
BUGSAT 1 06 Sep 01:06:55 01:11:00 44° 289° (WNW) 01:15:04 437.445
PCSat 06 Sep 01:09:56 01:15:20 77° 121° (ESE) 01:20:47 145.827
BEESAT 06 Sep 01:20:42 01:25:20 53° 70° (ENE) 01:29:59 436.000
SO-50 06 Sep 01:22:12 01:26:45 38° 318° (NW) 01:31:24 436.795
DUCHIFAT 1 06 Sep 01:25:56 01:29:10 21° 296° (WNW) 01:32:17 145.980
CUSAT 1 06 Sep 01:27:22 01:30:56 18° 307° (NW) 01:34:54 437.405
Cosmos 2504 06 Sep 01:29:01 01:35:03 20° 305° (NW) 01:40:51 435.465 / 435.565
POLYITAN 1 06 Sep 01:30:53 01:33:52 18° 297° (WNW) 01:36:43 437.675
POPSAT HIP 1 06 Sep 01:31:04 01:34:04 18° 297° (WNW) 01:36:57 437.405
RS-15 06 Sep 01:41:49 01:52:54 47° 248° (WSW) 02:04:08 29.354- 29.394
NANOSAT C BR1 06 Sep 01:46:30 01:48:44 14° 300° (WNW) 01:50:47 145.865
SWISSCUBE 06 Sep 01:47:25 01:52:11 81° 257° (WSW) 01:56:58 437.505
QB50P2 06 Sep 01:50:37 01:52:26 12° 300° (WNW) 01:54:03 145.880/145.840
Gurwin Techsat 1B 06 Sep 01:50:58 01:53:20 13° 85° (E) 01:55:59 435.225
Oscar 19 06 Sep 02:00:31 02:05:32 47° 98° (E) 02:10:32 437.125/150
STARS 06 Sep 02:02:22 02:05:02 16° 61° (ENE) 02:07:53 437.465
ITUPSAT 1 06 Sep 02:29:27 02:33:52 36° 263° (W) 02:38:16 437.325
VERMONT LUNAR 06 Sep 02:33:44 02:36:05 21° 170° (S) 02:38:27 437.305
KKS-1 06 Sep 02:34:02 02:38:19 49° 71° (ENE) 02:42:42 437.445
